Volver al catálogo

STARLINK-36341

ActivoComunicacionesVLEO
NORAD 67918·PAYLOAD·🇺🇸 United States

Lanzado Feb 22, 2026 desde Vandenberg Space Force Base

Loading…

Próximos Pases (próximas 24 horas)

TLE

ActualizadoSource: CelesTrak SupGP

Época: Sep 15, 2026, 04:08 UTC

1 67918C 26036Q   26258.17270833 -.00026842  00000+0 -97242-3 0  2580
2 67918  42.9990 255.6024 0001293 268.5160 182.5236 15.27584855    11

Sigue STARLINK-36341 en tiempo real con AllMySat

Download on the App Store